Regional Weather Roundup
Issued by NWS

Home | Current Version | Previous Version | Text Only | Print | Product List | Glossary Off
Versions: 1 2 3 4 5 6 7 8 9 10 11 12 13 14 15 16 17 18 19 20 21 22 23 24 25 26 27 28 29 30 31 32 33 34 35 36 37 38 39 40 41 42 43 44 45 46 47 48 49 50

000
ASUS45 KCYS 250910
RWRWY

WYOMING REGIONAL WEATHER ROUNDUP
NATIONAL WEATHER SERVICE CHEYENNE WY
300 AM MDT SAT APR 25 2015

NOTE:  "FAIR" INDICATES FEW OR NO CLOUDS BELOW 12,000 FEET
WITH NO SIGNIFICANT WEATHER AND/OR OBSTRUCTIONS TO VISIBILITY.

WYZ001-251000-
YELLOWSTONE NATIONAL PARK

CITY           SKY/WX    TMP DP  RH WIND       PRES   REMARKS
LK YELLOWSTONE   N/A     32  29  88 VRB6      29.73R WCI  26
W YELLOWSTONE  NOT AVBL

$$
WYZ002>013-054>058-071-098>099-251000-
NORTHERN WYOMING

CITY           SKY/WX    TMP DP  RH WIND       PRES   REMARKS
JACKSON        CLOUDY    37  36  93 S8        29.72R WCI  31
CODY           CLOUDY    43  41  93 NE7       29.64R
GREYBULL       CLOUDY    51  39  63 W9        29.59R
WORLAND        FAIR      44  38  79 SW9       29.56S
SHERIDAN       FAIR      48  36  63 W16       29.56R
BUFFALO        FAIR      51  37  58 S15       29.60S
GILLETTE       FAIR      44  39  82 S9        29.62S
HULETT         FAIR      46  32  57 E5        29.66S
NEWCASTLE      FAIR      45  37  76 NE10      29.67F

$$
WYZ014>020-022>026-101>103-251000-
CENTRAL WYOMING

CITY           SKY/WX    TMP DP  RH WIND       PRES   REMARKS
BIG PINEY      CLOUDY    35  34  96 SW6       29.72R WCI  30
PINEDALE       CLOUDY    34  34 100 E7        29.71F WCI  28
DUBOIS         LGT RAIN  36  32  87 NW13      29.67R WCI  27
LANDER         FAIR      48  31  51 E3        29.61F
RIVERTON       MOCLDY    47  33  58 SE6       29.62F
CASPER         MOCLDY    43  33  68 S6        29.66F
DOUGLAS        MOCLDY    42  40  92 CALM      29.68F

$$
WYZ021-027>030-104>119-251000-
SOUTHERN WYOMING

CITY           SKY/WX    TMP DP  RH WIND       PRES   REMARKS
EVANSTON       FAIR      34 N/A N/A SW16      29.80S WCI  24
FORT BRIDGER   PTSUNNY   37  36  93 W17G26    29.81R WCI  28
ROCK SPRINGS   LGT RAIN  38  36  92 W14       29.76R WCI  30
DIXON          CLOUDY    39  32  75 S7        29.78F WCI  34
RAWLINS        FAIR      32  29  88 CALM      29.74F
SARATOGA       FAIR      34  32  93 S9        29.76F WCI  26
LARAMIE        FAIR      36  29  75 SW3       29.76S
CHEYENNE       MOCLDY    44  31  60 NW7       29.72S
TORRINGTON     FAIR      41  39  93 W8        29.67R
PINE BLUFFS    FAIR      37  34  87 W7        29.69S WCI  32

$$


USA.gov is the U.S. government's official web portal to all federal, state and local government web resources and services.